Time,TemperatureF,DewpointF,PressureIn,WindDirection,WindDirectionDegrees,WindSpeedMPH,WindSpeedGustMPH,Humidity,HourlyPrecipIn,Conditions,Clouds,dailyrainin,SoftwareType,DateUTC
2013-01-15 00:09:00,28.3,22.0,30.26,NW,304,6.0,6.0,76,0.00,,,0.00,weatherlink.com 1.10,2013-01-15 05:09:00,
2013-01-15 00:24:00,28.2,22.0,30.24,NW,304,0.0,3.0,77,0.00,,,0.00,weatherlink.com 1.10,2013-01-15 05:24:00,
2013-01-15 00:39:00,28.0,22.0,30.22,WNW,302,1.0,7.0,77,0.00,,,0.00,weatherlink.com 1.10,2013-01-15 05:39:00,
2013-01-15 00:54:00,27.9,22.0,30.24,WSW,252,1.0,7.0,78,0.00,,,0.00,weatherlink.com 1.10,2013-01-15 05:54:00,
2013-01-15 01:09:00,27.9,22.0,30.24,WNW,291,2.0,5.0,78,0.00,,,0.00,weatherlink.com 1.10,2013-01-15 06:09:00,
2013-01-15 01:24:00,27.9,22.0,30.24,NW,326,2.0,6.0,78,0.00,,,0.00,weatherlink.com 1.10,2013-01-15 06:24:00,
2013-01-15 01:39:00,27.8,21.0,30.24,WNW,288,2.0,7.0,77,0.00,,,0.00,weatherlink.com 1.10,2013-01-15 06:39:00,
2013-01-15 01:54:00,27.8,22.0,30.23,WNW,287,3.0,4.0,78,0.00,,,0.00,weatherlink.com 1.10,2013-01-15 06:54:00,
2013-01-15 02:09:00,27.7,22.0,30.23,ENE,64,2.0,2.0,80,0.00,,,0.00,weatherlink.com 1.10,2013-01-15 07:09:00,
2013-01-15 02:24:00,27.6,22.0,30.23,WNW,290,5.0,6.0,80,0.00,,,0.00,weatherlink.com 1.10,2013-01-15 07:24:00,
2013-01-15 02:39:00,27.5,22.0,30.23,WNW,291,1.0,6.0,80,0.00,,,0.00,weatherlink.com 1.10,2013-01-15 07:39:00,
2013-01-15 02:54:00,27.4,22.0,30.23,NW,326,2.0,7.0,81,0.00,,,0.00,weatherlink.com 1.10,2013-01-15 07:54:00,
2013-01-15 03:09:00,27.3,22.0,30.22,NW,321,1.0,5.0,81,0.00,,,0.00,weatherlink.com 1.10,2013-01-15 08:09:00,
2013-01-15 03:24:00,27.2,22.0,30.22,North,351,0.0,3.0,81,0.00,,,0.00,weatherlink.com 1.10,2013-01-15 08:24:00,
2013-01-15 03:39:00,27.1,22.0,30.22,WNW,296,2.0,3.0,81,0.00,,,0.00,weatherlink.com 1.10,2013-01-15 08:39:00,
2013-01-15 03:54:00,27.0,22.0,30.23,NW,311,0.0,4.0,82,0.00,,,0.00,weatherlink.com 1.10,2013-01-15 08:54:00,
2013-01-15 04:09:00,26.8,22.0,30.23,West,279,1.0,2.0,82,0.00,,,0.00,weatherlink.com 1.10,2013-01-15 09:09:00,
2013-01-15 04:24:00,26.6,22.0,30.23,NNW,327,0.0,3.0,81,0.00,,,0.00,weatherlink.com 1.10,2013-01-15 09:24:00,
2013-01-15 04:39:00,26.4,22.0,30.22,West,278,3.0,4.0,82,0.00,,,0.00,weatherlink.com 1.10,2013-01-15 09:39:00,
2013-01-15 04:54:00,26.1,21.0,30.23,NW,308,0.0,1.0,81,0.00,,,0.00,weatherlink.com 1.10,2013-01-15 09:54:00,
2013-01-15 05:09:00,25.9,21.0,30.23,NW,321,0.0,1.0,81,0.00,,,0.00,weatherlink.com 1.10,2013-01-15 10:09:00,
2013-01-15 05:24:00,25.7,20.0,30.23,NNW,340,0.0,2.0,80,0.00,,,0.00,weatherlink.com 1.10,2013-01-15 10:24:00,
2013-01-15 05:39:00,25.4,20.0,30.23,WNW,296,0.0,2.0,80,0.00,,,0.00,weatherlink.com 1.10,2013-01-15 10:39:00,
2013-01-15 05:54:00,25.2,20.0,30.24,NW,314,0.0,2.0,80,0.00,,,0.00,weatherlink.com 1.10,2013-01-15 10:54:00,
2013-01-15 06:09:00,25.3,20.0,30.25,NW,305,0.0,1.0,79,0.00,,,0.00,weatherlink.com 1.10,2013-01-15 11:09:00,
2013-01-15 06:24:00,25.4,20.0,30.25,WNW,291,0.0,1.0,80,0.00,,,0.00,weatherlink.com 1.10,2013-01-15 11:24:00,
2013-01-15 06:40:00,25.4,20.0,30.25,West,271,0.0,3.0,79,0.00,,,0.00,weatherlink.com 1.10,2013-01-15 11:40:00,
2013-01-15 06:55:00,25.4,20.0,30.26,NNW,343,0.0,2.0,80,0.00,,,0.00,weatherlink.com 1.10,2013-01-15 11:55:00,
2013-01-15 07:10:00,25.3,20.0,30.27,WNW,287,0.0,2.0,80,0.00,,,0.00,weatherlink.com 1.10,2013-01-15 12:10:00,
2013-01-15 07:25:00,25.3,20.0,30.27,NW,323,0.0,2.0,79,0.00,,,0.00,weatherlink.com 1.10,2013-01-15 12:25:00,
2013-01-15 07:40:00,25.2,20.0,30.28,WNW,297,1.0,2.0,79,0.00,,,0.00,weatherlink.com 1.10,2013-01-15 12:40:00,
2013-01-15 07:55:00,25.1,20.0,30.29,NW,306,0.0,1.0,80,0.00,,,0.00,weatherlink.com 1.10,2013-01-15 12:55:00,
2013-01-15 08:10:00,25.0,19.0,30.29,NW,315,1.0,2.0,79,0.00,,,0.00,weatherlink.com 1.10,2013-01-15 13:10:00,
2013-01-15 08:25:00,25.0,19.0,30.29,WNW,301,2.0,2.0,79,0.00,,,0.00,weatherlink.com 1.10,2013-01-15 13:25:00,
2013-01-15 08:40:00,25.0,19.0,30.30,NNE,17,0.0,3.0,79,0.00,,,0.00,weatherlink.com 1.10,2013-01-15 13:40:00,
2013-01-15 08:55:00,25.3,19.0,30.30,NNE,29,0.0,1.0,78,0.00,,,0.00,weatherlink.com 1.10,2013-01-15 13:55:00,
2013-01-15 09:10:00,25.5,20.0,30.31,ENE,59,0.0,2.0,79,0.00,,,0.00,weatherlink.com 1.10,2013-01-15 14:10:00,
2013-01-15 09:25:00,25.8,20.0,30.31,WNW,291,2.0,2.0,78,0.00,,,0.00,weatherlink.com 1.10,2013-01-15 14:25:00,
2013-01-15 09:40:00,26.1,20.0,30.32,WNW,285,1.0,2.0,77,0.00,,,0.00,weatherlink.com 1.10,2013-01-15 14:40:00,
2013-01-15 09:55:00,25.8,20.0,30.32,WNW,285,2.0,5.0,77,0.00,,,0.00,weatherlink.com 1.10,2013-01-15 14:55:00,
2013-01-15 10:10:00,25.9,20.0,30.32,NW,314,1.0,4.0,77,0.00,,,0.00,weatherlink.com 1.10,2013-01-15 15:10:00,
2013-01-15 10:25:00,26.1,20.0,30.32,NW,304,2.0,5.0,77,0.00,,,0.00,weatherlink.com 1.10,2013-01-15 15:25:00,
2013-01-15 10:40:00,26.1,20.0,30.31,SE,142,0.0,4.0,76,0.00,,,0.00,weatherlink.com 1.10,2013-01-15 15:40:00,
2013-01-15 10:55:00,26.2,19.0,30.31,NW,314,0.0,5.0,75,0.00,,,0.00,weatherlink.com 1.10,2013-01-15 15:55:00,
2013-01-15 11:10:00,26.5,19.0,30.30,SW,235,2.0,6.0,74,0.00,,,0.00,weatherlink.com 1.10,2013-01-15 16:10:00,
2013-01-15 11:25:00,26.8,19.0,30.29,West,278,2.0,3.0,73,0.00,,,0.00,weatherlink.com 1.10,2013-01-15 16:25:00,
2013-01-15 11:40:00,26.5,19.0,30.29,NW,322,0.0,7.0,73,0.00,,,0.00,weatherlink.com 1.10,2013-01-15 16:40:00,
2013-01-15 11:55:00,26.1,19.0,30.28,WNW,297,3.0,6.0,73,0.00,,,0.00,weatherlink.com 1.10,2013-01-15 16:55:00,
2013-01-15 12:10:00,26.5,19.0,30.28,WSW,255,1.0,5.0,72,0.00,,,0.00,weatherlink.com 1.10,2013-01-15 17:10:00,
2013-01-15 12:25:00,26.5,19.0,30.28,WNW,302,1.0,6.0,72,0.00,,,0.00,weatherlink.com 1.10,2013-01-15 17:25:00,
2013-01-15 12:40:00,26.8,19.0,30.28,West,263,4.0,5.0,72,0.00,,,0.00,weatherlink.com 1.10,2013-01-15 17:40:00,
2013-01-15 12:55:00,26.7,19.0,30.27,West,259,1.0,4.0,72,0.00,,,0.00,weatherlink.com 1.10,2013-01-15 17:55:00,
2013-01-15 13:10:00,26.7,18.0,30.27,SSW,199,1.0,3.0,71,0.00,,,0.00,weatherlink.com 1.10,2013-01-15 18:10:00,
2013-01-15 13:25:00,26.5,18.0,30.27,SSE,165,1.0,4.0,71,0.00,,,0.00,weatherlink.com 1.10,2013-01-15 18:25:00,
2013-01-15 13:40:00,26.7,18.0,30.28,WSW,249,2.0,5.0,71,0.00,,,0.00,weatherlink.com 1.10,2013-01-15 18:40:00,
2013-01-15 13:55:00,26.5,19.0,30.27,West,273,1.0,6.0,72,0.00,,,0.00,weatherlink.com 1.10,2013-01-15 18:55:00,
2013-01-15 14:10:00,26.8,19.0,30.27,West,278,1.0,3.0,71,0.00,,,0.00,weatherlink.com 1.10,2013-01-15 19:10:00,
2013-01-15 14:25:00,26.8,19.0,30.27,West,271,3.0,4.0,71,0.00,,,0.00,weatherlink.com 1.10,2013-01-15 19:25:00,
2013-01-15 14:40:00,26.8,19.0,30.27,NNW,330,1.0,4.0,72,0.00,,,0.00,weatherlink.com 1.10,2013-01-15 19:40:00,
2013-01-15 14:55:00,26.8,19.0,30.27,WNW,288,1.0,4.0,71,0.00,,,0.00,weatherlink.com 1.10,2013-01-15 19:55:00,
2013-01-15 15:10:00,26.8,19.0,30.26,WSW,249,0.0,2.0,72,0.00,,,0.00,weatherlink.com 1.10,2013-01-15 20:10:00,
2013-01-15 15:25:00,26.6,19.0,30.27,NW,314,2.0,3.0,72,0.00,,,0.00,weatherlink.com 1.10,2013-01-15 20:25:00,
2013-01-15 15:40:00,26.3,19.0,30.27,NW,311,2.0,3.0,73,0.00,,,0.00,weatherlink.com 1.10,2013-01-15 20:40:00,
2013-01-15 15:55:00,26.4,19.0,30.28,WNW,287,0.0,2.0,73,0.00,,,0.00,weatherlink.com 1.10,2013-01-15 20:55:00,
2013-01-15 16:10:00,26.2,19.0,30.28,WNW,291,0.0,3.0,73,0.00,,,0.00,weatherlink.com 1.10,2013-01-15 21:10:00,
2013-01-15 16:25:00,26.1,19.0,30.27,WNW,283,0.0,3.0,73,0.00,,,0.00,weatherlink.com 1.10,2013-01-15 21:25:00,
2013-01-15 16:55:00,25.2,18.0,30.26,WNW,282,0.0,0.0,75,0.00,,,0.00,weatherlink.com 1.10,2013-01-15 21:55:00,
2013-01-15 17:10:00,24.5,18.0,30.25,NNE,12,0.0,0.0,77,0.00,,,0.00,weatherlink.com 1.10,2013-01-15 22:10:00,
2013-01-15 17:25:00,23.9,18.0,30.27,NNE,12,0.0,0.0,79,0.00,,,0.00,weatherlink.com 1.10,2013-01-15 22:25:00,
2013-01-15 17:40:00,23.7,18.0,30.28,North,11,0.0,0.0,80,0.00,,,0.00,weatherlink.com 1.10,2013-01-15 22:40:00,
2013-01-15 17:55:00,23.6,19.0,30.28,NNE,12,0.0,1.0,81,0.00,,,0.00,weatherlink.com 1.10,2013-01-15 22:55:00,
2013-01-15 18:10:00,23.7,19.0,30.28,NNE,12,0.0,1.0,81,0.00,,,0.00,weatherlink.com 1.10,2013-01-15 23:10:00,
2013-01-15 18:25:00,23.8,19.0,30.28,ENE,58,0.0,1.0,81,0.00,,,0.00,weatherlink.com 1.10,2013-01-15 23:25:00,
2013-01-15 18:40:00,23.7,19.0,30.28,ENE,58,0.0,0.0,81,0.00,,,0.00,weatherlink.com 1.10,2013-01-15 23:40:00,
2013-01-15 18:55:00,23.6,19.0,30.28,ENE,58,0.0,0.0,81,0.00,,,0.00,weatherlink.com 1.10,2013-01-15 23:55:00,
2013-01-15 19:10:00,23.6,19.0,30.27,SE,129,0.0,1.0,82,0.00,,,0.00,weatherlink.com 1.10,2013-01-16 00:10:00,
2013-01-15 19:25:00,23.9,19.0,30.27,ESE,103,0.0,1.0,81,0.00,,,0.00,weatherlink.com 1.10,2013-01-16 00:25:00,
2013-01-15 19:41:00,24.2,19.0,30.27,SSE,150,0.0,1.0,82,0.00,,,0.00,weatherlink.com 1.10,2013-01-16 00:41:00,
2013-01-15 19:55:00,24.0,19.0,30.26,ESE,110,0.0,1.0,81,0.00,,,0.00,weatherlink.com 1.10,2013-01-16 00:55:00,
2013-01-15 20:10:00,24.1,19.0,30.26,ESE,110,0.0,0.0,82,0.00,,,0.00,weatherlink.com 1.10,2013-01-16 01:10:00,
2013-01-15 20:26:00,24.3,20.0,30.27,ESE,110,0.0,0.0,82,0.00,,,0.00,weatherlink.com 1.10,2013-01-16 01:26:00,
2013-01-15 20:41:00,24.3,20.0,30.26,ESE,110,0.0,0.0,83,0.00,,,0.00,weatherlink.com 1.10,2013-01-16 01:41:00,
2013-01-15 20:56:00,24.3,20.0,30.25,ESE,110,0.0,0.0,82,0.00,,,0.00,weatherlink.com 1.10,2013-01-16 01:56:00,
2013-01-15 21:11:00,24.3,20.0,30.26,ESE,110,0.0,0.0,83,0.00,,,0.00,weatherlink.com 1.10,2013-01-16 02:11:00,
2013-01-15 21:26:00,24.3,20.0,30.24,ESE,110,0.0,0.0,82,0.00,,,0.00,weatherlink.com 1.10,2013-01-16 02:26:00,
2013-01-15 21:41:00,24.3,20.0,30.25,ESE,110,0.0,0.0,83,0.00,,,0.00,weatherlink.com 1.10,2013-01-16 02:41:00,
2013-01-15 21:56:00,24.2,20.0,30.24,ESE,110,0.0,0.0,84,0.00,,,0.00,weatherlink.com 1.10,2013-01-16 02:56:00,
2013-01-15 22:11:00,24.3,20.0,30.25,ESE,110,0.0,0.0,83,0.00,,,0.00,weatherlink.com 1.10,2013-01-16 03:11:00,
2013-01-15 22:26:00,24.5,20.0,30.24,ESE,110,0.0,0.0,83,0.00,,,0.00,weatherlink.com 1.10,2013-01-16 03:26:00,
2013-01-15 22:41:00,24.5,20.0,30.25,ESE,110,0.0,0.0,82,0.00,,,0.00,weatherlink.com 1.10,2013-01-16 03:41:00,
2013-01-15 22:56:00,24.5,20.0,30.25,ESE,110,0.0,0.0,82,0.00,,,0.00,weatherlink.com 1.10,2013-01-16 03:56:00,
2013-01-15 23:11:00,24.5,20.0,30.25,ESE,110,0.0,0.0,82,0.00,,,0.00,weatherlink.com 1.10,2013-01-16 04:11:00,
2013-01-15 23:26:00,24.4,20.0,30.25,ESE,110,0.0,0.0,82,0.00,,,0.00,weatherlink.com 1.10,2013-01-16 04:26:00,
2013-01-15 23:41:00,24.4,20.0,30.24,ESE,110,0.0,0.0,83,0.00,,,0.00,weatherlink.com 1.10,2013-01-16 04:41:00,
2013-01-15 23:56:00,24.4,20.0,30.24,ESE,110,0.0,0.0,83,0.00,,,0.00,weatherlink.com 1.10,2013-01-16 04:56:00,